SCOUT G-1 DEB, 44570

Orbit data source: Space-Track

SCOUT G-1 DEB, 44570 is space debris in LEO originally from a launch on Sat, 03 Aug 1985 UTC launched from the Air Force Western Test Range (AFWTR). Debris objects in space refer to the collection of defunct objects orbiting the Earth. Examples of debris include non-operational satellites, rocket bodies, and fragments generated from explosions, collisions, or faulty payload assembly.

Loading next visibility...
Identifier
44570, 1985-066J
Orbit
LEO
Country
Flag of USUS
Related business
Manufacturer
Unknown
Mission
Spacecraft
Bus & Motor
Unknown
Mass
Unknown
Launch date (UTC)
1985-08-03 (41 years ago)
Launch vehicle
Unknown
Launch site
Air Force Western Test Range (AFWTR)
Object type
Payload
Rocket body
Debris
Shape & HBR
Unknown shape, 0.1 m
Radar Cross Section
Small (<0.1 m²)

Expand to show TLE details & history
Last TLE update: 1 week ago

TLE from 1 week ago
0 SCOUT G-1 DEB
1 44570U 85066J   26164.58518698  .00000272  00000-0  46857-3 0  9998
2 44570  90.1723  96.1063 0158053 290.2173 194.9414 13.37937946598641
Epoch: 2026-06-13T14:02Z
TLE epoch observation values (Epoch: 2026-06-13T14:02:40.155Z)
Latitude
55.39043°
Longitude
163.78924°
Altitude
1,240.832 km
Speed
7.184 km/s
True Right ascension
18h 25m 25s
True Declination
55° 14' 23"
Sunlit
Object was in daylight at epoch
Visualization orbit readout
Latitude
Unknown
Longitude
Unknown
Altitude
Unknown
Speed
Unknown
Apparent Right ascension
Unknown
Apparent Declination
Unknown
Sunlit
N/A
Visualization observer readout
Local Sidereal Time
21:24:35
Azimuth
Unknown
Elevation
Unknown
Doppler factor
Unknown
Orbital elements
Apogee altitude
1,232.453 km
Perigee altitude
995.621 km
Semi-major axis
7,492.174 km
Eccentricity
0.01581
Inclination
90.1723°
RAAN
96.1063°
Arg. of periapsis
290.2173°
True anomaly
194.48319°
Mean anomaly
194.9414°
Eccentric anomaly
194.71143°
Mean motion
3.34681 °/min
Orbital period
107.57 mins
BSTAR
0.00046857
Loading maneuver chart data...
Computing Atmospheric mass density...
Loading historical data...
Loading historical data...
Loading historical data...
Loading historical data...
Loading historical data...
Loading historical data...
Loading historical data...

Documentation

Showing up to 5 results
|